Camanche, IA

9:48 PM CDT on September 25, 2016 (GMT -0500)
Clinton Municipal

Weather History for KCWI - June, 2013

Change the Weather History Date:

Monday, June 24, 2013

  Actual Average Record
Temperature  
Mean Temperature 70 °F -  
Max Temperature 75 °F 82 °F 96 °F (2005)
Min Temperature 64 °F 61 °F 48 °F (1972)
Cooling Degree Days 4    
Growing Degree Days 20 (Base 50)    
Moisture  
Dew Point 58 °F    
Average Humidity 71    
Maximum Humidity 83    
Minimum Humidity 33    
Precipitation  
Precipitation 1.16 in - - ()
Sea Level Pressure  
Sea Level Pressure 29.99 in    
Wind  
Wind Speed 9 mph (South)    
Max Wind Speed 23 mph    
Max Gust Speed 40 mph    
Visibility 10 miles    
Events Thunderstorm    
Averages and records for this station are not official NWS values.
T = Trace of Precipitation, MM = Missing Value Source: NWS Daily Summary

Daily Weather History Graph

Daily Weather History Graph

Search for Another Location

Airport or City:

Trip Planner

Search our weather history database for the weather conditions in past years. The results will help you decide how hot, cold, wet, or windy it might be!

Date:

Astronomy

Jun. 24, 2013 Rise Set
Actual Time 5:27 AM CDT 8:40 PM CDT
Civil Twilight 4:52 AM CDT 9:14 PM CDT
Nautical Twilight 4:08 AM CDT 9:58 PM CDT
Astronomical Twilight 3:15 AM CDT 10:51 PM CDT
Moon 9:40 PM CDT (6/24) 6:56 AM CDT (6/24)
Length of Visible Light 16h 21m
Length of Day
15h 13m
Full, 98% of the Moon is Illuminated
Jun 24
Full
Jun 29
Last Quarter
Jul 8
New
Jul 15
First Quarter
Jul 22
Full

Hourly Weather History & Observations

Time (CDT) Temp. Dew Point Humidity Pressure Visibility Wind Dir Wind Speed Gust Speed Precip Events Conditions
12:15 AM 69.8 °F 62.6 °F 78% 30.01 in 10.0 mi South 4.6 mph - N/A   Clear
12:35 AM 69.8 °F 62.6 °F 78% 30.00 in 10.0 mi SSE 5.8 mph - N/A   Clear
12:55 AM 71.6 °F 62.6 °F 73% 30.00 in 10.0 mi South 5.8 mph - N/A   Clear
1:15 AM 69.8 °F 62.6 °F 78% 29.99 in 10.0 mi South 6.9 mph - N/A   Clear
1:35 AM 69.8 °F 62.6 °F 78% 30.00 in 10.0 mi South 5.8 mph - N/A   Clear
1:55 AM 69.8 °F 62.6 °F 78% 30.00 in 10.0 mi SSW 10.4 mph - N/A   Clear
2:15 AM 69.8 °F 62.6 °F 78% 30.00 in 10.0 mi South 9.2 mph - N/A   Partly Cloudy
2:35 AM 69.8 °F 39.2 °F 33% 30.00 in 10.0 mi SSW 8.1 mph - N/A   Mostly Cloudy
2:55 AM 69.8 °F 57.2 °F 64% 29.99 in 10.0 mi SSW 12.7 mph - N/A Thunderstorm Scattered Clouds
3:15 AM 69.8 °F 57.2 °F 64% 29.98 in 10.0 mi WNW 12.7 mph - N/A Thunderstorm Mostly Cloudy
3:35 AM 69.8 °F 57.2 °F 64% 30.01 in 10.0 mi SW 10.4 mph - N/A Thunderstorm Mostly Cloudy
3:55 AM 69.8 °F 59.0 °F 68% 30.03 in 10.0 mi West 10.4 mph - 0.01 in Thunderstorm Overcast
4:15 AM 69.8 °F 57.2 °F 64% 30.02 in 10.0 mi West 12.7 mph - 0.06 in Thunderstorm Mostly Cloudy
4:35 AM 69.8 °F 57.2 °F 64% 30.01 in 10.0 mi SSW 10.4 mph - 0.06 in Thunderstorm Mostly Cloudy
4:55 AM 69.8 °F 57.2 °F 64% 30.01 in 9.0 mi South 10.4 mph - 0.06 in Thunderstorm Partly Cloudy
5:15 AM 69.8 °F 57.2 °F 64% 30.01 in 10.0 mi South 8.1 mph - 0.01 in Thunderstorm Mostly Cloudy
5:35 AM 69.8 °F 57.2 °F 64% 30.01 in 10.0 mi SW 12.7 mph - 0.02 in Thunderstorm Thunderstorm
5:55 AM 66.2 °F 55.4 °F 68% 30.03 in 10.0 mi SW 19.6 mph 26.5 mph 0.10 in Thunderstorm Thunderstorm
6:15 AM 66.2 °F 53.6 °F 64% 30.04 in 10.0 mi SSW 17.3 mph - 0.01 in Thunderstorm Thunderstorm
6:35 AM 64.4 °F 55.4 °F 73% 30.05 in 10.0 mi South 9.2 mph - 0.03 in   Overcast
6:55 AM 64.4 °F 55.4 °F 73% 30.05 in 10.0 mi South 15.0 mph - 0.03 in Thunderstorm Overcast
7:15 AM 66.2 °F 55.4 °F 68% 30.08 in 9.0 mi SSE 9.2 mph - N/A Thunderstorm Mostly Cloudy
7:35 AM 66.2 °F 55.4 °F 68% 30.14 in 10.0 mi South 10.4 mph - N/A Thunderstorm Thunderstorm
7:55 AM 64.4 °F 55.4 °F 73% 30.11 in 8.0 mi South 13.8 mph - 0.10 in Thunderstorm Thunderstorm
8:15 AM 64.4 °F 55.4 °F 73% 30.11 in 10.0 mi SW 13.8 mph - 0.01 in   Mostly Cloudy
8:35 AM 64.4 °F 53.6 °F 68% 30.12 in 10.0 mi SW 11.5 mph - 0.03 in   Overcast
8:55 AM 64.4 °F 57.2 °F 77% 30.08 in 10.0 mi SSE 10.4 mph - 0.05 in Thunderstorm Overcast
9:15 AM 66.2 °F 57.2 °F 73% 30.02 in 10.0 mi SSE 16.1 mph 20.7 mph N/A Thunderstorm Mostly Cloudy
9:35 AM 66.2 °F 57.2 °F 73% 30.03 in 7.0 mi South 13.8 mph 25.3 mph N/A Thunderstorm Thunderstorm
9:55 AM 66.2 °F 57.2 °F 73% 30.05 in 10.0 mi SSW 11.5 mph - N/A   Partly Cloudy
10:15 AM 66.2 °F 57.2 °F 73% 30.05 in 10.0 mi SSW 4.6 mph - N/A   Partly Cloudy
10:35 AM 66.2 °F 57.2 °F 73% 30.05 in 10.0 mi SSW 9.2 mph - 0.01 in   Scattered Clouds
10:55 AM 69.8 °F 57.2 °F 64% 30.02 in 10.0 mi South 15.0 mph 18.4 mph 0.01 in   Scattered Clouds
11:15 AM 71.6 °F 59.0 °F 64% 30.01 in 10.0 mi SE 9.2 mph - N/A   Partly Cloudy
11:35 AM 71.6 °F 59.0 °F 64% 30.01 in 10.0 mi SSW 3.5 mph - N/A   Clear
11:55 AM 73.4 °F 57.2 °F 57% 30.01 in 10.0 mi SE 3.5 mph - N/A   Clear
12:15 PM 73.4 °F 57.2 °F 57% 30.00 in 10.0 mi Calm Calm - N/A   Clear
12:35 PM 75.2 °F 60.8 °F 61% 29.99 in 10.0 mi SE 6.9 mph - N/A   Clear
12:55 PM 75.2 °F 60.8 °F 61% 30.01 in 10.0 mi SSE 4.6 mph - N/A   Clear
1:15 PM 73.4 °F 60.8 °F 65% 30.07 in 10.0 mi WNW 13.8 mph - N/A   Partly Cloudy
1:35 PM 71.6 °F 60.8 °F 69% 30.02 in 10.0 mi NNW 9.2 mph - 0.01 in Thunderstorm Thunderstorm
1:55 PM 69.8 °F 60.8 °F 73% 30.02 in 9.0 mi Calm Calm - 0.04 in Thunderstorm Overcast
2:15 PM 69.8 °F 62.6 °F 78% 29.97 in 10.0 mi ESE 6.9 mph - 0.01 in   Mostly Cloudy
2:35 PM 73.4 °F 62.6 °F 69% 29.97 in 10.0 mi South 6.9 mph - 0.01 in   Partly Cloudy
2:55 PM 73.4 °F 62.6 °F 69% 29.97 in 10.0 mi South 11.5 mph - 0.01 in   Partly Cloudy
3:15 PM 71.6 °F 60.8 °F 69% 29.99 in 5.0 mi SW 19.6 mph 26.5 mph 0.17 in   Mostly Cloudy
3:35 PM 71.6 °F 60.8 °F 69% 29.97 in 10.0 mi South 9.2 mph - 0.35 in Thunderstorm Thunderstorm
3:55 PM 71.6 °F 60.8 °F 69% 29.94 in 10.0 mi SSE 5.8 mph - 0.36 in Thunderstorm Clear
4:15 PM 66.2 °F 55.4 °F 68% 30.02 in 2.0 mi West 23.0 mph 40.3 mph 0.32 in Thunderstorm Thunderstorm
4:35 PM 66.2 °F 57.2 °F 73% 30.00 in 9.0 mi West 13.8 mph - 0.34 in Thunderstorm Thunderstorm
4:55 PM 66.2 °F 57.2 °F 73% 29.98 in 10.0 mi SW 11.5 mph - 0.36 in   Overcast
5:15 PM 66.2 °F 57.2 °F 73% 29.97 in 10.0 mi SSW 13.8 mph - 0.02 in   Overcast
5:35 PM 66.2 °F 57.2 °F 73% 29.94 in 10.0 mi SSW 5.8 mph - 0.03 in   Overcast
5:55 PM 66.2 °F 57.2 °F 73% 29.91 in 10.0 mi ESE 5.8 mph - 0.03 in   Mostly Cloudy
6:15 PM 66.2 °F 59.0 °F 78% 29.91 in 10.0 mi ENE 3.5 mph - N/A   Partly Cloudy
6:35 PM 66.2 °F 59.0 °F 78% 29.92 in 10.0 mi ESE 3.5 mph - N/A   Clear
6:55 PM 66.2 °F 59.0 °F 78% 29.92 in 10.0 mi ESE 4.6 mph - N/A   Clear
7:15 PM 66.2 °F 57.2 °F 73% 29.93 in 10.0 mi SSE 5.8 mph - N/A   Clear
7:35 PM 66.2 °F 57.2 °F 73% 29.94 in 10.0 mi South 6.9 mph - N/A   Clear
7:55 PM 66.2 °F 59.0 °F 78% 29.93 in 10.0 mi ESE 3.5 mph - N/A   Clear
8:15 PM 66.2 °F 60.8 °F 83% 29.92 in 10.0 mi SSE 8.1 mph - N/A   Clear
8:35 PM 66.2 °F 57.2 °F 73% 29.92 in 10.0 mi SSE 4.6 mph - N/A   Clear
8:55 PM 66.2 °F 57.2 °F 73% 29.92 in 10.0 mi South 3.5 mph - N/A   Partly Cloudy
9:15 PM 66.2 °F 57.2 °F 73% 29.92 in 10.0 mi SSE 4.6 mph - N/A   Scattered Clouds
9:35 PM 66.2 °F 59.0 °F 78% 29.94 in 10.0 mi SSE 6.9 mph - N/A   Partly Cloudy
9:55 PM 66.2 °F 59.0 °F 78% 29.95 in 9.0 mi SSE 6.9 mph - N/A   Scattered Clouds
10:15 PM 66.2 °F 59.0 °F 78% 29.95 in 10.0 mi SE 5.8 mph - N/A   Scattered Clouds
10:35 PM 66.2 °F 59.0 °F 78% 29.94 in 10.0 mi SSE 6.9 mph - N/A   Mostly Cloudy
10:55 PM 66.2 °F 59.0 °F 78% 29.95 in 10.0 mi SE 8.1 mph - N/A   Mostly Cloudy
11:15 PM 66.2 °F 59.0 °F 78% 29.94 in 10.0 mi SE 8.1 mph - N/A   Scattered Clouds
11:35 PM 66.2 °F 57.2 °F 73% 29.93 in 10.0 mi SE 6.9 mph - N/A   Partly Cloudy
11:55 PM 66.2 °F 57.2 °F 73% 29.92 in 10.0 mi SE 6.9 mph - N/A   Clear